THORAD DELTA 1 DEB, 8567

Orbit data source: Space-Track

THORAD DELTA 1 DEB, 8567 is space debris in LEO originally from a launch on Fri, 15 Nov 1974 UTC launched from the Air Force Western Test Range (AFWTR). Debris objects in space refer to the collection of defunct objects orbiting the Earth. Examples of debris include non-operational satellites, rocket bodies, and fragments generated from explosions, collisions, or faulty payload assembly.

Loading next visibility...
Identifier
8567, 1974-089DE
Orbit
LEO
Country
Flag of USUS
Related business
Manufacturer
Unknown
Mission
Spacecraft
Bus & Motor
Unknown
Mass
Unknown
Launch date (UTC)
1974-11-15 (51 years ago)
Launch vehicle
Unknown
Launch site
Air Force Western Test Range (AFWTR)
Object type
Payload
Rocket body
Debris
Shape & HBR
Unknown shape, 0.1 m
Radar Cross Section
Small (<0.1 m²)

Expand to show TLE details & history
Last TLE update: 2 days ago

TLE from 2 days ago
0 THORAD DELTA 1 DEB
1 08567U 74089DE  25298.81467005  .00001233  00000-0  19106-1 0  9998
2 08567 100.6241 246.4799 0718951 358.5371  52.4124 11.33988012 99255
Epoch: 2025-10-25T19:33Z
TLE epoch observation values (Epoch: 2025-10-25T19:33:07.492Z)
Latitude
56.39969°
Longitude
-97.55873°
Altitude
1,661.809 km
Speed
7.188 km/s
True Right ascension
15h 20m 38s
True Declination
56° 15' 32"
Sunlit
Object was in daylight at epoch
Visualization orbit readout
Latitude
Unknown
Longitude
Unknown
Altitude
Unknown
Speed
Unknown
Apparent Right ascension
Unknown
Apparent Declination
Unknown
Sunlit
N/A
Visualization observer readout
Local Sidereal Time
19:15:52
Azimuth
Unknown
Elevation
Unknown
Doppler factor
Unknown
Orbital elements
Apogee altitude
2,589.785 km
Perigee altitude
1,386.777 km
Semi-major axis
8,366.418 km
Eccentricity
0.0719
Inclination
100.6241°
RAAN
246.4799°
Arg. of periapsis
358.5371°
True anomaly
59.30176°
Mean anomaly
52.4124°
Eccentric anomaly
55.8202°
Mean motion
2.83618 °/min
Orbital period
126.93 mins
BSTAR
0.019106
Loading maneuver chart data...
Computing Atmospheric mass density...

Documentation

Showing up to 5 results
|